Tracking 17694 objects as of 26-May-2016
HD Live streaming from Space Station
objects crossing your sky now

ERS 2

Track ERS 2 now!
10-day predictions
ERS 2 is classified as:


NORAD ID: 23560
Int'l Code: 1995-021A
Perigee: 513.3 km
Apogee: 518.9 km
Inclination: 98.5 °
Period: 94.8 minutes
Semi major axis: 6887 km
RCS: 9.2311 m2 (large)
Launch date: April 21, 1995
Source: European Space Agency (ESA)
Launch site: FRENCH GUIANA (FRGUI)

Earth resources spacecraft; measure ocean surface and waves, temperatures; monitor ozone and ozone-destroying gases; ocean currents and changes in Arctic and Antarctic ice.
Your satellite tracking list
Your tracking list is empty





NASA's NSSDC Master Catalog

Two Line Element Set (TLE):
1 23560U 95021A   16146.33192449  .00002092  00000-0  10413-3 0  9991
2 23560  98.5134  82.2074 0004081 159.1335 201.0064 15.18971342116474
Source of the keplerian elements: AFSPC

N2YO: 803